weather.gov     
National Weather Service

Terminal Aerodrome Forecast
NWS Homepage
This page is being discontinued on March 12, 2014.
The same data is available at this site. Please update your bookmarks.
Thank you, and we apologize for the inconvenience.
Please send an email to SR-SRH.Webmaster@noaa.gov with any concerns.


Current Version
Previous Version:    01  02  03  04  05  06  07  08  09  10  11  12  13  14  15  16  17  18  19  20  21  22  23  24  25  26  27  28  29  30  
   31  32  33  34  
[Printable]
774
FTUS46 KMFR 242200 AAB
TAFRBG
TAF AMD
KRBG 242200Z 2422/2518 03003KT P6SM -RA SCT009 BKN060
      TEMPO 2422/2423 BKN009
     FM242300 VRB03KT P6SM -RA SCT020 BKN050 OVC080
     FM250000 VRB03KT P6SM FEW025 BKN060
     FM251200 16010KT P6SM -RA SCT030 BKN050=




774
FTUS46 KMFR 242200 AAB
TAFRBG
TAF AMD
KRBG 242200Z 2422/2518 03003KT P6SM -RA SCT009 BKN060
      TEMPO 2422/2423 BKN009
     FM242300 VRB03KT P6SM -RA SCT020 BKN050 OVC080
     FM250000 VRB03KT P6SM FEW025 BKN060
     FM251200 16010KT P6SM -RA SCT030 BKN050=


U.S. Dept. of Commerce
NOAA National Weather Service
1325 East West Highway
Silver Spring, MD 20910
E-mail: w-nws.webmaster@noaa.gov
Page last modified: May 16, 2007
NATIONAL WEATHER SERVICE: for Safety, for Work, for Fun - FOR LIFE